Regional Weather Roundup
Issued by NWS

Home | Current Version | Previous Version | Text Only | Print | Product List | Glossary On
Versions: 1 2 3 4 5 6 7 8 9 10 11 12 13 14 15 16 17 18 19 20 21 22 23 24 25 26 27 28 29 30 31 32 33 34 35 36 37 38 39 40 41 42 43 44 45 46 47 48 49 50
000
ASUS43 KFSD 032002
RWRSD

WEATHER ROUNDUP FOR SOUTH DAKOTA
NATIONAL WEATHER SERVICE SIOUX FALLS SD
300 PM CDT SUN MAY 03 2015

NOTE: "FAIR" INDICATES FEW OR NO CLOUDS BELOW 12,000 FEET WITH NO
SIGNIFICANT WEATHER AND/OR OBSTRUCTIONS TO VISIBILITY.


SDZ001>005-009-010-012>017-032100-
NORTHWEST AND NORTH CENTRAL SOUTH DAKOTA

CITY           SKY/WX    TMP DP  RH WIND       PRES   REMARKS
BUFFALO          N/A     55  36  48 CALM      30.00S
FAITH            N/A     66  30  26 N13G22    30.01R
MOBRIDGE       PTSUNNY   65  29  25 N15       29.98R
$$

SDZ012>016-024>037-041>051-057-063-072>074-032100-
SOUTHWEST AND SOUTH CENTRAL SOUTH DAKOTA

CITY           SKY/WX    TMP DP  RH WIND       PRES   REMARKS
RAPID CTY ARPT MOSUNNY   68  37  32 NE21      30.00S
PIERRE         SUNNY     74  35  24 N20G30    29.93R
CUSTER         MOSUNNY   59  35  40 NE12G20   30.04S
ELLSWORTH AFB  MOSUNNY   67  37  33 N10G22    30.00S
PHILIP         SUNNY     73  35  25 NE14G24   29.96R
PINE RIDGE     MOSUNNY   69  38  32 NE14G25   29.98R
WINNER         FAIR      72  35  25 NE31      29.90R
$$

SDZ004>011-016>023-039-040-032100-
NORTHEAST SOUTH DAKOTA

CITY           SKY/WX    TMP DP  RH WIND       PRES   REMARKS
ABERDEEN       PTSUNNY   68  31  25 NE18G25   29.94R
WATERTOWN      PTSUNNY   65  39  38 NE18G25   29.92R
BROOKINGS      PTSUNNY   70  37  30 N21G32    29.89R
SISSETON         N/A     70  36  28 NE18      29.91F
$$

SDZ017-020-022-023-036>040-048>070-032100-
SOUTHEAST SOUTH DAKOTA

CITY           SKY/WX    TMP DP  RH WIND       PRES   REMARKS
SIOUX FALLS    PTSUNNY   79  56  45 N23G31    29.80R
HURON          CLOUDY    72  37  28 NE21G33   29.91R
MITCHELL       PTSUNNY   74  40  29 NE28G37   29.86R
YANKTON        PTSUNNY   82  55  39 N8G16     29.75R
$$

ABBREVIATIONS USED IN REMARKS
   TC - TEMPERATURE IN CELSIUS
  WCI - WIND CHILL INDEX
   HX - HEAT INDEX
  VSB - VISIBILITY




USA.gov is the U.S. government's official web portal to all federal, state and local government web resources and services.